Regional Weather Roundup
Issued by NWS

Home | Current Version | Previous Version | Graphics & Text | Print | Product List | Glossary On
Versions: 1 2 3 4 5 6 7 8 9 10 11 12 13 14 15 16 17 18 19 20 21 22 23 24 25 26 27 28 29 30 31 32 33 34 35 36 37 38 39 40 41 42 43 44 45 46 47 48 49 50
000
ASUS43 KFSD 191610
RWRSD

WEATHER ROUNDUP FOR SOUTH DAKOTA
NATIONAL WEATHER SERVICE SIOUX FALLS SD
1000 AM CST FRI DEC 19 2014

NOTE: "FAIR" INDICATES FEW OR NO CLOUDS BELOW 12,000 FEET WITH NO
SIGNIFICANT WEATHER AND/OR OBSTRUCTIONS TO VISIBILITY.


SDZ001>005-009-010-012>017-191700-
NORTHWEST AND NORTH CENTRAL SOUTH DAKOTA

CITY           SKY/WX    TMP DP  RH WIND       PRES   REMARKS
BUFFALO          N/A     31  21  66 W8        29.88S WCI  23
FAITH            N/A     31  25  78 W7        29.97R WCI  24
MOBRIDGE       PTSUNNY   23  20  88 S8        29.97R FOG     WCI  14
$$

SDZ012>016-024>037-041>051-057-063-072>074-191700-
SOUTHWEST AND SOUTH CENTRAL SOUTH DAKOTA

CITY           SKY/WX    TMP DP  RH WIND       PRES   REMARKS
RAPID CTY ARPT SUNNY     34  23  64 CALM      29.98R
PIERRE         CLOUDY    20  17  88 CALM      30.02S FOG
CUSTER         SUNNY     29  17  61 W3        29.96S
ELLSWORTH AFB  SUNNY     34  23  64 W6        29.97S WCI  29
PHILIP         PTSUNNY   29  22  75 W12       30.00S WCI  19
PINE RIDGE     SUNNY     30  19  63 W9        30.01F WCI  22
SPEARFISH      FAIR      34  18  51 CALM      29.98R
WINNER         FAIR      25  16  68 SW9       30.04R WCI  15
$$

SDZ004>011-016>023-039-040-191700-
NORTHEAST SOUTH DAKOTA

CITY           SKY/WX    TMP DP  RH WIND       PRES   REMARKS
ABERDEEN       CLOUDY    28  26  92 S15       30.06S FOG     WCI  16
WATERTOWN      CLOUDY    26  25  96 S18       30.07S FOG     WCI  13
SISSETON         N/A     29  27  92 SW14      30.07F WCI  18
$$

SDZ017-020-022-023-036>040-048>070-191700-
SOUTHEAST SOUTH DAKOTA

CITY           SKY/WX    TMP DP  RH WIND       PRES   REMARKS
SIOUX FALLS    CLOUDY    29  27  92 S15       30.15S WCI  18
HURON          CLOUDY    28  26  92 S14       30.09S FOG     WCI  17
CHAMBERLAIN    MOSUNNY   18  17  93 CALM      30.06S
MITCHELL       CLOUDY    29  27  92 S10       30.12S FOG     WCI  20
YANKTON        CLOUDY    30  27  86 S13       30.16S WCI  20
$$

ABBREVIATIONS USED IN REMARKS
   TC - TEMPERATURE IN CELSIUS
  WCI - WIND CHILL INDEX
   HX - HEAT INDEX
  VSB - VISIBILITY



USA.gov is the U.S. government's official web portal to all federal, state and local government web resources and services.